Weather History for Russellville, AR

Change the Weather History Date:

Wednesday, July 3, 2013

  Actual Average (KHOT) Record (KHOT)
Temperature  
Mean Temperature 72 °F -  
Max Temperature 89 °F 92 °F 105 °F (1980)
Min Temperature 57 °F 69 °F 62 °F (2013)
Cooling Degree Days 8    
Growing Degree Days 22 (Base 50)    
Moisture  
Dew Point 54 °F    
Average Humidity 56    
Maximum Humidity 90    
Minimum Humidity 27    
Precipitation  
Precipitation 0.00 in - - ()
Sea Level Pressure  
Sea Level Pressure 30.04 in    
Wind  
Wind Speed 1 mph (South)    
Max Wind Speed 5 mph    
Max Gust Speed -    
Visibility 10 miles    
Events      
Averages and records for this station are not official NWS values.
T = Trace of Precipitation, MM = Missing Value Source: NWS Daily Summary

Daily Weather History Graph

Daily Weather History Graph

Search for Another Location

Airport:

Trip Planner

Search our weather history database for the weather conditions in past years. The results will help you decide how hot, cold, wet, or windy it might be!

Date:

Astronomy

Jul. 03, 2013 Rise Set
Actual Time 6:02 AM CDT 8:30 PM CDT
Civil Twilight 5:32 AM CDT 9:00 PM CDT
Nautical Twilight 4:56 AM CDT 9:37 PM CDT
Astronomical Twilight 4:15 AM CDT 10:17 PM CDT
Moon 2:36 AM CDT (7/3) 4:45 PM CDT (7/3)
Length of Visible Light 15h 27m
Length of Day
14h 28m
Waning Crescent, 18% of the Moon is Illuminated
Jul 3
Waning Crescent
Jul 8
New
Jul 15
First Quarter
Jul 22
Full
Jul 29
Last Quarter

Hourly Weather History & Observations

Time (CDT) Temp. Heat Index Dew Point Humidity Pressure Visibility Wind Dir Wind Speed Gust Speed Precip Events Conditions
12:53 AM 64.9 °F - 55.9 °F 73% 30.06 in 10.0 mi Calm Calm - N/A   Clear
1:53 AM 62.1 °F - 55.9 °F 80% 30.06 in 10.0 mi Calm Calm - N/A   Clear
2:53 AM 61.0 °F - 55.9 °F 83% 30.05 in 10.0 mi Calm Calm - N/A   Clear
3:53 AM 59.0 °F - 55.0 °F 87% 30.06 in 9.0 mi Calm Calm - N/A   Clear
4:53 AM 59.0 °F - 55.9 °F 90% 30.06 in 9.0 mi Calm Calm - N/A   Clear
5:53 AM 57.9 °F - 55.0 °F 90% 30.07 in 8.0 mi Calm Calm - N/A   Clear
6:53 AM 59.0 °F - 55.9 °F 90% 30.07 in 7.0 mi Calm Calm - N/A   Clear
7:53 AM 66.0 °F - 57.9 °F 75% 30.09 in 8.0 mi Calm Calm - N/A   Clear
8:53 AM 71.1 °F - 57.9 °F 63% 30.11 in 10.0 mi Calm Calm - N/A   Clear
9:53 AM 75.0 °F - 57.9 °F 55% 30.10 in 10.0 mi Calm Calm - N/A   Clear
10:53 AM 79.0 °F - 57.0 °F 47% 30.09 in 10.0 mi Calm Calm - N/A   Clear
11:53 AM 82.0 °F 81.3 °F 54.0 °F 38% 30.08 in 10.0 mi Calm Calm - N/A   Clear
12:53 PM 84.0 °F - 52.0 °F 33% 30.06 in 10.0 mi SSW 4.6 mph - N/A   Clear
1:53 PM 82.9 °F - 52.0 °F 34% 30.05 in 10.0 mi SE 4.6 mph - N/A   Mostly Cloudy
2:53 PM 87.1 °F - 52.0 °F 30% 30.02 in 10.0 mi Variable 4.6 mph - N/A   Partly Cloudy
3:53 PM 87.1 °F - 51.1 °F 29% 30.01 in 10.0 mi Variable 4.6 mph - N/A   Clear
4:53 PM 88.0 °F - 51.1 °F 28% 30.00 in 10.0 mi Calm Calm - N/A   Clear
5:53 PM 87.1 °F - 48.9 °F 27% 29.99 in 10.0 mi Variable 4.6 mph - N/A   Clear
6:53 PM 84.9 °F - 50.0 °F 30% 29.99 in 10.0 mi Variable 3.5 mph - N/A   Clear
7:53 PM 80.1 °F 80.1 °F 55.0 °F 42% 29.99 in 10.0 mi Calm Calm - N/A   Clear
8:53 PM 73.0 °F - 55.0 °F 53% 29.99 in 10.0 mi Calm Calm - N/A   Clear
9:53 PM 73.9 °F - 53.1 °F 48% 30.01 in 10.0 mi Calm Calm - N/A   Clear
10:53 PM 73.0 °F - 55.0 °F 53% 30.03 in 10.0 mi Variable 3.5 mph - N/A   Clear
11:53 PM 72.0 °F - 55.0 °F 55% 30.04 in 10.0 mi Calm Calm - N/A   Clear